Search the data

BODC Cruise Metadata Report for FRV Clupea (74CU) cruise 1598C

Introduction

This report collates information from the BODC cruise inventory and oceanographic databases. It presents

Cruise Inventory Information

Long name FRV Clupea (74CU) cruise 1598C
Short name 1598C
Objectives and Narrative 1. To conduct a large scale hydrographic, chemical and biological survey of the Minches area, from 56 20'N - 58 30'N between the mainland and the Outer Hebrides.
2. To investigate gradients of nutrients, chlorophyll and plankton between a selected sea loch (Loch Ewe) and the adjacent coastal waters.
3. To carry out some additional physical measurements (ie temperature and salinity) to assist in the development of a circulation model of the Scottish continental shelf.
Ship FRV Clupea
Departure Port Fraserburgh, United Kingdom
Departure Date 1998-09-04
Arrival Port Fraserburgh, United Kingdom
Arrival Date 1998-09-21
Principal Scientist(s) Steven J Hay (Fisheries Research Services Aberdeen Marine Laboratory)
Responsible Organisation Polar Res. Ins. of Mar. Fisheries + Ocean. Russia
Associated Project(s)
IHB Sea Areas Visited Inner Seas off the West Coast of Scotland
Marsden Squares Visited 181;4
Work Area Description Minches - Outer Hebrides to Mainland, 56deg20'N to 58deg30'N
Work Area Bounding Polygon 55N,10W; 60N,10W; 60N,5W; 55N,5W; 55N,10W
Southern Limit 55N
Northern Limit 60N
Western Limit 10W
Eastern Limit 5W

Cruise Inventory Datasets

Physical oceanography  
CTD stations Quantity: number of stations = 109
Description:  
Surface measurements underway (T,S) Quantity: activity duration in days = 17
Description: Thermosalinograph.  
Water bottle stations Quantity: number of stations = 109
Description: Temperature and Salinity, Nutrients, Fluoresence, Chlorophyll and Phytoplankton  
Biology and fisheries  
Phytoplankton Quantity: number of stations = 109
Description: Temperature and Salinity, Nutrients, Fluoresence, Chlorophyll and Phytoplankton  
Phytoplankton pigs (eg chlorophyll, fluorescence) Quantity: number of stations = 109
Description: Temperature and Salinity, Nutrients, Fluoresence, Chlorophyll and Phytoplankton  
Zooplankton Quantity: number of hauls = 59
Description: Ocean Sampler, 286 depth resolved samples  
Zooplankton Quantity: number of hauls = 52
Description: Hauls, Methot Net, 91 depth resolved samples  

Cruise Inventory Mooring/Buoy Operations

No information on datasets is currently available

Summary of BODC Data Holdings for the Cruise

National Oceanographic Database

Summary

# Series Instrument Description Parameters
109 CTD/STD cast Electrical conductivity of the water column
Reference numbers
Salinity of the water column
Temperature of the water column
Vertical spatial coordinates

Note: Parameter terms are taken from the BODC Parameter Discovery Vocabulary XML (SKOS)

Full List

BODC Reference Instrument Description Date/Time Location  
512196 CTD/STD cast 1998-09-05 11:10Z 58° 30' N, 5° 11' W Click for more
512203 CTD/STD cast 1998-09-05 16:28Z 58° 30' N, 5° 20' W Click for more
512215 CTD/STD cast 1998-09-05 17:24Z 58° 30' N, 5° 30' W Click for more
512227 CTD/STD cast 1998-09-06 08:29Z 58° 30' N, 5° 40' W Click for more
512239 CTD/STD cast 1998-09-06 09:30Z 58° 30' N, 5° 49' W Click for more
512240 CTD/STD cast 1998-09-06 10:49Z 58° 30' N, 6° 0' W Click for more
512252 CTD/STD cast 1998-09-06 11:50Z 58° 30' N, 6° 10' W Click for more
512264 CTD/STD cast 1998-09-06 13:03Z 58° 19' N, 6° 7' W Click for more
512276 CTD/STD cast 1998-09-06 13:59Z 58° 19' N, 6° 0' W Click for more
512288 CTD/STD cast 1998-09-06 15:02Z 58° 19' N, 5° 50' W Click for more
512307 CTD/STD cast 1998-09-06 15:55Z 58° 19' N, 5° 40' W Click for more
512319 CTD/STD cast 1998-09-06 17:37Z 58° 20' N, 5° 30' W Click for more
512320 CTD/STD cast 1998-09-07 06:57Z 58° 20' N, 5° 15' W Click for more
512332 CTD/STD cast 1998-09-07 08:14Z 58° 20' N, 5° 21' W Click for more
512344 CTD/STD cast 1998-09-07 11:21Z 58° 10' N, 6° 0' W Click for more
512356 CTD/STD cast 1998-09-07 12:15Z 58° 10' N, 5° 51' W Click for more
512368 CTD/STD cast 1998-09-07 13:16Z 58° 10' N, 5° 40' W Click for more
512381 CTD/STD cast 1998-09-07 14:07Z 58° 10' N, 5° 33' W Click for more
512393 CTD/STD cast 1998-09-07 15:08Z 58° 10' N, 5° 25' W Click for more
512400 CTD/STD cast 1998-09-08 08:13Z 58° 0' N, 5° 34' W Click for more
512412 CTD/STD cast 1998-09-08 09:23Z 58° 0' N, 5° 44' W Click for more
512424 CTD/STD cast 1998-09-08 11:01Z 58° 0' N, 5° 54' W Click for more
512436 CTD/STD cast 1998-09-08 12:38Z 58° 0' N, 6° 9' W Click for more
512448 CTD/STD cast 1998-09-08 14:20Z 58° 10' N, 6° 7' W Click for more
512461 CTD/STD cast 1998-09-08 15:26Z 58° 9' N, 6° 15' W Click for more
512473 CTD/STD cast 1998-09-08 16:47Z 58° 0' N, 6° 21' W Click for more
512485 CTD/STD cast 1998-09-09 08:20Z 57° 49' N, 6° 39' W Click for more
512497 CTD/STD cast 1998-09-09 09:34Z 57° 49' N, 6° 25' W Click for more
512504 CTD/STD cast 1998-09-09 11:20Z 57° 49' N, 6° 10' W Click for more
512516 CTD/STD cast 1998-09-09 12:18Z 57° 49' N, 6° 1' W Click for more
512528 CTD/STD cast 1998-09-09 13:13Z 57° 50' N, 5° 53' W Click for more
512541 CTD/STD cast 1998-09-09 14:36Z 57° 57' N, 5° 43' W Click for more
512553 CTD/STD cast 1998-09-09 15:12Z 57° 54' N, 5° 42' W Click for more
512565 CTD/STD cast 1998-09-09 15:28Z 57° 54' N, 5° 42' W Click for more
512577 CTD/STD cast 1998-09-09 15:47Z 57° 52' N, 5° 40' W Click for more
512589 CTD/STD cast 1998-09-09 16:06Z 57° 51' N, 5° 39' W Click for more
512590 CTD/STD cast 1998-09-09 16:23Z 57° 50' N, 5° 39' W Click for more
512608 CTD/STD cast 1998-09-09 16:40Z 57° 49' N, 5° 38' W Click for more
512621 CTD/STD cast 1998-09-09 17:00Z 57° 48' N, 5° 37' W Click for more
512633 CTD/STD cast 1998-09-10 08:12Z 57° 40' N, 5° 52' W Click for more
512645 CTD/STD cast 1998-09-10 09:31Z 57° 40' N, 5° 59' W Click for more
512657 CTD/STD cast 1998-09-10 10:44Z 57° 40' N, 6° 9' W Click for more
512669 CTD/STD cast 1998-09-10 11:51Z 57° 34' N, 6° 3' W Click for more
512670 CTD/STD cast 1998-09-10 12:35Z 57° 34' N, 5° 55' W Click for more
512682 CTD/STD cast 1998-09-10 13:18Z 57° 30' N, 5° 56' W Click for more
512694 CTD/STD cast 1998-09-10 14:02Z 57° 25' N, 5° 57' W Click for more
512701 CTD/STD cast 1998-09-10 15:25Z 57° 30' N, 6° 4' W Click for more
512713 CTD/STD cast 1998-09-10 16:42Z 57° 25' N, 6° 6' W Click for more
512725 CTD/STD cast 1998-09-11 08:40Z 57° 0' N, 5° 57' W Click for more
512737 CTD/STD cast 1998-09-11 09:51Z 57° 0' N, 6° 6' W Click for more
512749 CTD/STD cast 1998-09-11 11:14Z 56° 55' N, 6° 0' W Click for more
512750 CTD/STD cast 1998-09-11 13:51Z 56° 40' N, 6° 24' W Click for more
512762 CTD/STD cast 1998-09-11 14:52Z 56° 40' N, 6° 15' W Click for more
512774 CTD/STD cast 1998-09-13 09:27Z 56° 44' N, 6° 16' W Click for more
512786 CTD/STD cast 1998-09-13 10:37Z 56° 45' N, 6° 25' W Click for more
512798 CTD/STD cast 1998-09-13 11:36Z 56° 45' N, 6° 34' W Click for more
512805 CTD/STD cast 1998-09-13 12:30Z 56° 45' N, 6° 45' W Click for more
512817 CTD/STD cast 1998-09-13 13:08Z 56° 45' N, 6° 54' W Click for more
512829 CTD/STD cast 1998-09-13 14:06Z 56° 44' N, 7° 2' W Click for more
512830 CTD/STD cast 1998-09-13 15:10Z 56° 45' N, 7° 13' W Click for more
512842 CTD/STD cast 1998-09-13 16:01Z 56° 45' N, 7° 20' W Click for more
512854 CTD/STD cast 1998-09-13 17:01Z 56° 45' N, 7° 31' W Click for more
512866 CTD/STD cast 1998-09-13 17:43Z 56° 45' N, 7° 39' W Click for more
512878 CTD/STD cast 1998-09-14 07:20Z 56° 41' N, 7° 33' W Click for more
512891 CTD/STD cast 1998-09-14 08:24Z 56° 39' N, 7° 25' W Click for more
512909 CTD/STD cast 1998-09-14 09:30Z 56° 36' N, 7° 17' W Click for more
512910 CTD/STD cast 1998-09-14 10:24Z 56° 33' N, 7° 11' W Click for more
512922 CTD/STD cast 1998-09-14 12:10Z 56° 22' N, 6° 55' W Click for more
512934 CTD/STD cast 1998-09-14 13:11Z 56° 22' N, 6° 45' W Click for more
512946 CTD/STD cast 1998-09-14 14:08Z 56° 22' N, 6° 35' W Click for more
512958 CTD/STD cast 1998-09-14 15:05Z 56° 22' N, 6° 25' W Click for more
512971 CTD/STD cast 1998-09-14 16:05Z 56° 30' N, 6° 30' W Click for more
512983 CTD/STD cast 1998-09-14 17:05Z 56° 29' N, 6° 38' W Click for more
512995 CTD/STD cast 1998-09-15 07:12Z 56° 34' N, 6° 54' W Click for more
513009 CTD/STD cast 1998-09-15 08:07Z 56° 34' N, 7° 3' W Click for more
513010 CTD/STD cast 1998-09-15 09:36Z 56° 40' N, 7° 13' W Click for more
513022 CTD/STD cast 1998-09-15 10:47Z 56° 40' N, 7° 3' W Click for more
513034 CTD/STD cast 1998-09-15 11:41Z 56° 40' N, 6° 54' W Click for more
513046 CTD/STD cast 1998-09-15 12:31Z 56° 39' N, 6° 45' W Click for more
513058 CTD/STD cast 1998-09-15 14:22Z 56° 34' N, 6° 31' W Click for more
513071 CTD/STD cast 1998-09-15 15:22Z 56° 34' N, 6° 22' W Click for more
513083 CTD/STD cast 1998-09-17 07:27Z 56° 54' N, 6° 15' W Click for more
513095 CTD/STD cast 1998-09-17 08:15Z 56° 55' N, 6° 21' W Click for more
513102 CTD/STD cast 1998-09-17 08:59Z 56° 55' N, 6° 29' W Click for more
513114 CTD/STD cast 1998-09-17 09:51Z 56° 55' N, 6° 37' W Click for more
513126 CTD/STD cast 1998-09-17 10:25Z 56° 55' N, 6° 45' W Click for more
513138 CTD/STD cast 1998-09-17 11:02Z 56° 55' N, 6° 51' W Click for more
513151 CTD/STD cast 1998-09-17 11:55Z 56° 55' N, 6° 59' W Click for more
513163 CTD/STD cast 1998-09-17 12:53Z 56° 55' N, 7° 10' W Click for more
513175 CTD/STD cast 1998-09-17 14:02Z 56° 55' N, 7° 20' W Click for more
513187 CTD/STD cast 1998-09-17 14:49Z 56° 55' N, 7° 24' W Click for more
513199 CTD/STD cast 1998-09-17 16:54Z 57° 9' N, 7° 10' W Click for more
513206 CTD/STD cast 1998-09-18 06:58Z 57° 10' N, 7° 0' W Click for more
513218 CTD/STD cast 1998-09-18 07:50Z 57° 10' N, 6° 52' W Click for more
513231 CTD/STD cast 1998-09-18 08:53Z 57° 10' N, 6° 43' W Click for more
513243 CTD/STD cast 1998-09-18 09:55Z 57° 9' N, 6° 35' W Click for more
513255 CTD/STD cast 1998-09-18 10:54Z 57° 10' N, 6° 23' W Click for more
513267 CTD/STD cast 1998-09-18 13:01Z 57° 19' N, 6° 46' W Click for more
513279 CTD/STD cast 1998-09-18 14:19Z 57° 20' N, 6° 56' W Click for more
513280 CTD/STD cast 1998-09-18 15:52Z 57° 20' N, 7° 9' W Click for more
513292 CTD/STD cast 1998-09-19 06:44Z 57° 25' N, 7° 7' W Click for more
513311 CTD/STD cast 1998-09-19 07:17Z 57° 25' N, 7° 0' W Click for more
513323 CTD/STD cast 1998-09-19 08:00Z 57° 25' N, 6° 49' W Click for more
513335 CTD/STD cast 1998-09-19 08:59Z 57° 29' N, 6° 47' W Click for more
513347 CTD/STD cast 1998-09-19 10:15Z 57° 30' N, 6° 57' W Click for more
513359 CTD/STD cast 1998-09-19 11:21Z 57° 30' N, 7° 6' W Click for more
513360 CTD/STD cast 1998-09-19 12:56Z 57° 39' N, 7° 0' W Click for more
513372 CTD/STD cast 1998-09-19 14:32Z 57° 40' N, 6° 45' W Click for more
513384 CTD/STD cast 1998-09-19 16:07Z 57° 39' N, 6° 30' W Click for more

Project Database

No data currently held for this cruise in the BODC Project Database

References

Track Charts

Track Chart

Reports

Cruise Report